Regional Weather Roundup
Issued by NWS New Orleans/Baton Rouge, LA

Home | Current Version | Previous Version | Text Only | Print | Product List | Glossary Off
Versions: 1 2 3 4 5 6 7 8 9 10 11 12 13 14 15 16 17 18 19 20 21 22 23 24 25 26 27 28 29 30 31 32 33 34 35 36 37 38 39 40 41 42 43 44 45 46 47 48 49 50

410
ASUS44 KLIX 020705
RWRLIX
NEW ORLEANS REGIONAL WEATHER ROUNDUP
NATIONAL WEATHER SERVICE NEW ORLEANS LA
200 AM CDT THU OCT 02 2014

NOTE: "FAIR" INDICATES FEW OR NO CLOUDS BELOW 12,000 FEET WITH NO
      SIGNIFICANT WEATHER AND/OR OBSTRUCTIONS TO VISIBILITY.
      SKY/WX - SKY CONDITION AND SIGNIFICANT WEATHER.
      TMP - AIR TEMPERATURE.     DP    - DEWPOINT TEMPERATURE.
      RH  - RELATIVE HUMIDITY.   PRES  - PRESSURE.
      HI  - HEAT INDEX.          WCI   - WIND CHILL INDEX.

*  THESE STATIONS ARE NOT NWS OR FAA STATIONS AND ARE NOT UNDER
   NWS QUALITY CONTROL.

LAZ038-040-048-061>063-065>067-069-020800-
SOUTHEAST LOUISIANA

CITY           SKY/WX    TMP DP  RH WIND       PRES   REMARKS
N.O. AUDUBON   NOT AVBL
N.O. INTL ARPT MOCLDY    78  75  90 SE7       29.93S
N.O. LAKEFRONT CLEAR     78  75  90 SE7       29.94S
N.O. DOWNTOWN*   N/A     79  73  83 CALM      29.94S
SLIDELL        CLOUDY    78  75  90 SE3       29.94R
BATON ROUGE    PTCLDY    76  74  93 SE5       29.92S
BOOTHVILLE     CLEAR     78  77  96 SE5       29.95S
BELLE CHASSE   CLEAR     79  74  84 SE6       29.93S
BOGALUSA*      PTSUNNY   77  72  86 CALM      29.96S
GALLIANO*      NOT AVBL
NEW ROADS*     CLOUDY    76  75  96 SE5       29.92R
GONZALES*        N/A     75  75 100 CALM      29.92S
HAMMOND*       CLOUDY    77  73  88 SE5       29.95S
HOUMA*         CLEAR    N/A N/A N/A CALM      29.92F
PORT FOURCHON* SUNNY     81  75  83 SE8       29.96F

$$

MSZ070-080>082-020800-
SOUTHERN MISSISSIPPI

CITY           SKY/WX    TMP DP  RH WIND       PRES   REMARKS
MCCOMB         CLOUDY    76  73  91 SE7       29.95R
GULFPORT       CLEAR     78  74  87 SE6       29.95R
BILOXI         PTCLDY    80  76  88 S8        29.95S
PASCAGOULA     CLEAR     71  70  96 CALM      29.96S

$$

COASTAL OBSERVATIONS
LAKE AND NEARSHORE STATIONS

STATION/POSITION TIME  TEMP    WIND        PRES    WAVE
                       AIR SEA DIR/SP/G            HT/PER
                 (UTC) (F)     (DEG/KT/KT) (MB)    (FT/S)
PASCAGOULA       0700   80     150/  4/  7 1013.9
WAVELAND YACHT   0700   80     150/  8/ 10 1013.3
GRAND ISLE       0700   80 81  160/  4/  7 1014.3
SOUTHWEST PASS   0700   80 85  140/  6/  7 1014.3
NEW CANAL        0600   78 77  160/  3/  5 1014.0
SHELL BEACH      0700   78 76  140/  7/  9 1013.7

OFFSHORE STATIONS

STATION/POSITION TIME  TEMP    WIND        PRES    WAVE
                       AIR SEA DIR/SP/G            HT/PER
                 (UTC) (F)     (DEG/KT/KT) (MB)    (FT/S)
64 S DAUPHIN ISL 0558   81 82  150/ 14/ 16 1014.7    1/ 3

$$




USA.gov is the U.S. government's official web portal to all federal, state and local government web resources and services.